Location: Unspecified
(0.0000°N, 0.0000°E)
Time: 15:02:59
(UTC+00:00)

Altair - Pass Details

Date: 15 March 2026
Orbit: 1502 x 1682 km, 47.2° (Epoch: 18 April)

Event Time Altitude Azimuth Distance (km) Brightness Sun altitude
Rises 05:02:45 0° 341° (NNW) 4,647 9.8 -16.6°
Reaches altitude 10° 05:06:18 10° 352° (N) 3,686 9.4 -15.7°
Maximum altitude 05:14:06 30° 49° (NE) 2,526 9.2 -13.7°
Drops below altitude 10° 05:22:05 10° 106° (ESE) 3,808 11.0 -11.7°
Sets 05:25:47 0° 116° (ESE) 4,823 11.4 -10.8°
